Location: Karaa?a�
(36.7158°N, 30.4165°E)
Time: 13:33:48
(UTC+00:00)

ATLAS 2AS CENTAUR R/B - Visible Passes

Search period start: 06 August 2020 00:00
Search period end: 16 August 2020 00:00
Orbit: 930 x 1282 km, 63.7° (Epoch: 19 July)

Date Brightness Start Highest point End Pass type
(mag) Time Alt. Az. Time Alt. Az. Time Alt. Az.
08 Aug 5.5 02:40:12 10° SE 02:44:11 15° ESE 02:48:11 10° ENE visible
11 Aug 5.2 02:14:49 10° SSE 02:20:15 21° ESE 02:25:45 10° ENE visible
12 Aug 5.6 01:33:52 10° ESE 01:35:56 11° E 01:37:59 10° E visible
13 Aug 4.2 02:33:34 10° S 02:40:54 44° ESE 02:48:22 10° NE visible
14 Aug 4.8 01:50:00 10° SSE 01:56:22 28° ESE 02:02:50 10° NE visible
15 Aug 5.2 01:07:29 10° SE 01:11:58 16° ESE 01:16:30 10° ENE visible
